Regional Weather Roundup
Issued by NWS

Home | Current Version | Previous Version | Graphics & Text | Print | Product List | Glossary Off
Versions: 1 2 3 4 5 6 7 8 9 10 11 12 13 14 15 16 17 18 19 20 21 22 23 24 25 26 27 28 29 30 31 32 33 34 35 36 37 38 39 40 41 42 43 44 45 46 47 48 49 50

691
ASUS43 KDMX 162106
RWRIA

WEATHER ROUNDUP FOR IOWA
NATIONAL WEATHER SERVICE DES MOINES IA
300 PM CST MON JAN 16 2017

NOTE: "FAIR" INDICATES FEW OR NO CLOUDS BELOW 12,000 FEET WITH NO
SIGNIFICANT WEATHER AND/OR OBSTRUCTIONS TO VISIBILITY.

* - THESE STATIONS ARE NOT NWS STATIONS...THUS NOT UNDER NWS
QUALITY CONTROL.  THEY ALSO DO NOT REPORT WEATHER SUCH
AS PRECIPITATION OR FOG.

IAZ001>003-012>014-020>022-031>034-043>046-162200-
   NORTHWEST IOWA

CITY           SKY/WX    TMP DP  RH WIND       PRES   REMARKS
CARROLL *      CLOUDY    34  34 100 NE10      29.90S FOG     WCI  26
CHEROKEE *     MIX PCPN  32  32 100 NE7       29.94S WCI  26
DENISON *      CLOUDY    32  32 100 NE8       29.88S FOG     WCI  25
LE MARS *      LGT RAIN  32  32 100 N9        29.96S WCI  24
ORANGE CITY *  MIX PCPN  32  32 100 N7        29.95S WCI  26
SHELDON *      RAIN      32  32 100 N13       29.94S WCI  22
SIOUX CITY     LGT RAIN  34  32  92 N8        29.94F FOG     WCI  27
SPENCER        FRZ RAIN  32  30  92 NE13      29.95S WCI  22
STORM LAKE *   LGT RAIN  32  32 100 NE13G18   29.91F WCI  22
$$

IAZ055>058-069>071-079>083-090>094-162200-
   SOUTHWEST IOWA

CITY           SKY/WX    TMP DP  RH WIND       PRES   REMARKS
ATLANTIC *     LGT RAIN  34  34 100 NE7       29.87S VSB 3/4 WCI  28
AUDUBON *      CLOUDY    32  30  93 NE5       29.89S FOG     WCI  27
CLARINDA *     FOG       36  36 100 E5        29.86S VSB 1/4 WCI  32
COUNCIL BLFS * LGT RAIN  34  34 100 N9        29.87S WCI  26
CRESTON *      FOG       34  34 100 E7        29.86S VSB<1/4 WCI  28
HARLAN  *      FOG       34  32  93 N8        29.92R VSB 3/4 WCI  27
LAMONI         FOG       35  35 100 E5        29.84F VSB 1/4 WCI  31
RED OAK *      FOG       36  36 100 NE6       29.86S VSB 1   WCI  31
SHENANDOAH *   FOG       36  36 100 N7        29.86S VSB 3/4 WCI  30
$$

IAZ047>049-059>061-072>074-084-162200-
   CENTRAL IOWA

CITY           SKY/WX    TMP DP  RH WIND       PRES   REMARKS
AMES           LGT RAIN  33  33 100 NE6       29.91F FOG     WCI  28
ANKENY *       CLOUDY    32  32 100 E5        29.90F FOG     WCI  27
BOONE *        CLOUDY    32  32 100 MISG      29.89F FOG
CHARITON *     SNOW      34  34 100 SE5       29.87S VSB<1/4 WCI  30
DES MOINES     DRIZZLE   34  33  96 E5        29.89F FOG     WCI  30
GRINNELL*      LGT RAIN  33  32  97 E7        29.90F WCI  27
KNOXVILLE *    LGT RAIN  34  32  93 E6        29.87F VSB 3/4 WCI  29
MARSHALLTOWN   LGT RAIN  33  33 100 E10       29.90F FOG     WCI  25
NEWTON *       CLOUDY    34  32  93 E9        29.89S FOG     WCI  26
PELLA *        CLOUDY    34  33  98 SE8       29.90F FOG     WCI  27
PERRY *        CLOUDY    33  33 100 NE3       29.89F FOG
$$

IAZ004>006-015-016-023>025-035-036-162200-
   NORTH CENTRAL IOWA

CITY           SKY/WX    TMP DP  RH WIND       PRES   REMARKS
ALGONA *       LGT RAIN  32  32 100 NE10      29.95S WCI  24
CLARION *      CLOUDY    32  32 100 NE10      29.94S FOG     WCI  24
ESTHERVILLE    FRZ RAIN  30  30 100 NE14      29.96S FOG     WCI  19
FORT DODGE *   CLOUDY    32  30  93 CALM      29.94S
MASON CITY     FRZ RAIN  32  30  92 NE12      29.96F FOG     WCI  23
FOREST CITY *  RAIN      32  32 100 NE8       29.95F WCI  25
WEBSTER CITY * CLOUDY    32  32 100 NE8       29.90F FOG     WCI  25
IOWA FALLS *   MIX PCPN  33  32  95 NE5       29.94S WCI  29
$$

IAZ007>011-017>019-026>030-037>042-050>054-066-162200-
   NORTHEAST IOWA

CITY           SKY/WX    TMP DP  RH WIND       PRES   REMARKS
CEDAR RAPIDS   LGT RAIN  33  33 100 SE10      29.92S FOG     WCI  25
CHARLES CITY * LGT RAIN  32  32 100 MISG      29.96F
CLINTON *      LGT RAIN  35  34  96 E17       29.98F WCI  25
DECORAH *      LGT RAIN  32  32 100 E10       29.98F WCI  24
DUBUQUE        LGT RAIN  33  32  96 E9        29.98F FOG     WCI  25
MONTICELLO *   CLOUDY    34  34 100 MISG      29.96F FOG
OELWEIN *      CLOUDY    34  34 100 E13       29.95F WCI  25
WATERLOO       MIX PCPN  33  31  92 E12       29.93F FOG     WCI  24
$$

IAZ064-065-067-068-078-162200-
   EAST CENTRAL IOWA

CITY           SKY/WX    TMP DP  RH WIND       PRES   REMARKS
DAVENPORT      LGT RAIN  35  34  96 E13       29.96F FOG     WCI  26
IOWA CITY      MIX PCPN  36  35  96 E7        29.96R FOG     WCI  30
MUSCATINE *    MIX PCPN  37  37 100 SE6       29.95S WCI  33
QUAD CITIES    CLOUDY    37  34  89 E13       29.95F FOG     WCI  29
$$

IAZ062-063-075>077-085>089-095>099-162200-
   SOUTHEAST IOWA

CITY           SKY/WX    TMP DP  RH WIND       PRES   REMARKS
BURLINGTON     CLOUDY    38  38 100 SE7       29.92F WCI  33
FAIRFIELD *    CLOUDY    37  36  93 SE10      29.90F FOG     WCI  30
FORT MADISON * CLOUDY    37  37 100 E7        29.92F WCI  32
KEOKUK *       CLOUDY    39  39 100 SE9       29.91F FOG     WCI  33
OSKALOOSA *    CLOUDY    34  34  99 SE9       29.90S FOG     WCI  27
CENTERVILLE *  LGT RAIN  36  36 100 CALM      29.88F VSB 1/2
OTTUMWA        CLOUDY    37  35  92 SE12      29.89S FOG     WCI  29
WASHINGTON *   CLOUDY    36  36 100 E12       29.93F FOG     WCI  27
$$

ABBREVIATIONS USED IN REMARKS
   TC - TEMPERATURES IN CELSIUS
  WCI - WIND CHILL INDEX
   HX - HEAT INDEX
  VSB - VISIBILITY
$$





USA.gov is the U.S. government's official web portal to all federal, state and local government web resources and services.